Location: Bishop�s Knoyle
(51.0728°N, 2.1714°W)
Time: 08:14:43
(UTC+00:00)

Oscar 11 - Visible Passes

Search period start: 06 December 2021 00:00
Search period end: 16 December 2021 00:00
Orbit: 613 x 624 km, 97.6° (Epoch: 05 December)

Date Brightness Start Highest point End Pass type
(mag) Time Alt. Az. Time Alt. Az. Time Alt. Az.
06 Dec 7.5 05:30:35 10° NNE 05:34:55 62° E 05:39:12 10° S visible
06 Dec 8.4 07:07:33 10° NNW 07:10:38 19° WNW 07:13:41 10° WSW visible
06 Dec 10.3 18:08:47 10° WSW 18:10:43 13° W 18:12:41 10° WNW visible
07 Dec 10.3 04:13:25 10° ENE 04:15:00 12° E 04:16:34 10° ESE visible
07 Dec 7.0 05:47:24 10° NNE 05:51:48 89° ESE 05:56:07 10° SSW visible
07 Dec 7.6 16:46:32 10° S 16:50:51 67° WSW 16:55:13 10° NNW visible
08 Dec 9.9 04:29:13 10° NE 04:32:04 17° E 04:34:53 10° SE visible
08 Dec 7.0 06:04:18 10° N 06:08:37 64° WNW 06:12:53 10° SSW visible
08 Dec 8.3 17:03:35 10° S 17:07:45 46° W 17:11:59 10° NNW visible
09 Dec 9.4 04:45:34 10° NE 04:49:06 24° E 04:52:36 10° SSE visible
09 Dec 7.3 06:21:17 10° N 06:25:25 44° WNW 06:29:31 10° SW visible
09 Dec 9.1 17:20:48 10° SSW 17:24:42 32° W 17:28:39 10° NNW visible
10 Dec 8.7 05:02:07 10° NNE 05:06:04 33° E 05:10:00 10° SSE visible
10 Dec 7.7 06:38:18 10° N 06:42:10 32° WNW 06:46:00 10° SW visible
10 Dec 9.7 17:38:15 10° SW 17:41:42 23° W 17:45:10 10° NW visible
11 Dec 8.0 05:18:48 10° NNE 05:23:01 48° E 05:27:11 10° S visible
11 Dec 8.1 06:55:26 10° N 06:58:52 23° WNW 07:02:17 10° WSW visible
11 Dec 10.1 17:56:01 10° SW 17:58:43 16° W 18:01:28 10° NW visible
12 Dec 7.3 05:35:34 10° NNE 05:39:55 70° ESE 05:44:13 10° S visible
12 Dec 8.5 07:12:43 10° NNW 07:15:33 17° WNW 07:18:22 10° W visible
12 Dec 7.2 16:34:37 10° SSE 16:38:58 85° WSW 16:43:22 10° NNW visible
12 Dec 10.4 18:14:30 10° WSW 18:15:48 11° W 18:17:06 10° WNW visible
13 Dec 10.2 04:17:57 10° ENE 04:20:04 13° E 04:22:10 10° ESE visible
13 Dec 6.9 05:52:24 10° NNE 05:56:47 81° WNW 06:01:05 10° SSW visible
13 Dec 7.8 16:51:34 10° S 16:55:51 58° W 17:00:10 10° NNW visible
14 Dec 9.7 04:34:01 10° NE 04:37:07 19° E 04:40:11 10° SE visible
14 Dec 7.1 06:09:20 10° N 06:13:35 56° WNW 06:17:48 10° SSW visible
14 Dec 8.6 17:08:40 10° SSW 17:12:46 40° W 17:16:55 10° NNW visible
15 Dec 9.2 04:50:26 10° NE 04:54:07 26° E 04:57:47 10° SSE visible
15 Dec 7.5 06:26:19 10° N 06:30:22 39° WNW 06:34:23 10° SW visible
15 Dec 9.3 17:25:58 10° SSW 17:29:44 28° W 17:33:31 10° NNW visible
